{"data":{"norad_id":62868,"intl_designator":"2025-022Q","name":"STARLINK-32822","alt_names":[],"object_type":"PAYLOAD","status":"ACTIVE","operator":null,"country":"US","launch_date":"2025-02-01","launch_site_code":"AFWTR","launch_vehicle":null,"mission":null,"orbit_class":"UNKNOWN","rcs_meters":null,"size_class":null,"mass_kg":null,"dimensions":null,"purposes":["comms"],"wikipedia_slug":null,"has_3d_model":false,"image_url":null,"decayed_at":null,"tle_current":{"epoch":"2026-05-25T03:14:26.076192Z","epoch_age_seconds":59815,"freshness":"FRESH","line1":"1 62868U 25022Q   26145.13502403  .00014026  00000+0  48442-3 0  9994","line2":"2 62868  53.1571 134.5728 0001038  89.3717 270.7402 15.30225605 73608","mean_motion":15.30225605,"eccentricity":0.0001038,"inclination_deg":53.1571,"raan_deg":134.5728,"arg_perigee_deg":89.3717,"mean_anomaly_deg":270.7402,"bstar":0.00048442,"rev_number":7360,"period_min":94.103771057994,"perigee_km":474.4272485615,"apogee_km":475.84998857991,"semimajor_km":6853.2756185707,"source":"CELESTRAK","updated_at":"2026-05-25T13:38:19.786075Z"}}}